When you browse on this site, cookies collect data to enhance your experience and personalize the content and advertising you see.
Visit our Privacy Policy to learn more. By continuing to use the site, you agree to this use of cookies and data.
  • în România
  • Lista ţărilor
  • Pe 7 zile
  • Temperatura apei
  • Meteo pe hartă
  • Widget-uri
  • user-avatar
    Intrare

    Meteo pe oră la Brisbane

    Astăzi, 18 Noiembrie, Luni

    Timp Temperatura Precipitaţii Vânt Presiune Umiditate
    00:00 +22°C° 0 mm 5 m/s 759 mmHg 76%
    01:00 +21°C° 0 mm 5 m/s 759 mmHg 74%
    02:00 +21°C° 0 mm 4 m/s 759 mmHg 76%
    03:00 +20°C° 0 mm 4 m/s 760 mmHg 78%
    04:00 +20°C° 0 mm 3 m/s 760 mmHg 81%
    05:00 +20°C° 0 mm 4 m/s 761 mmHg 76%
    06:00 +21°C° 0 mm 4 m/s 761 mmHg 71%
    07:00 +22°C° 0 mm 5 m/s 761 mmHg 66%
    08:00 +25°C° 0 mm 5 m/s 762 mmHg 60%
    09:00 +26°C° 0 mm 5 m/s 762 mmHg 54%
    10:00 +28°C° 0 mm 4 m/s 762 mmHg 45%
    11:00 +28°C° 0 mm 5 m/s 761 mmHg 43%
    12:00 +29°C° 0 mm 5 m/s 761 mmHg 40%
    13:00 +29°C° 0 mm 5 m/s 760 mmHg 38%
    14:00 +29°C° 0 mm 5 m/s 760 mmHg 40%
    15:00 +28°C° 0 mm 4 m/s 760 mmHg 41%
    16:00 +28°C° 0 mm 3 m/s 759 mmHg 42%
    17:00 +26°C° 0 mm 3 m/s 760 mmHg 50%
    18:00 +24°C° 0 mm 3 m/s 760 mmHg 59%
    19:00 +21°C° 0 mm 3 m/s 760 mmHg 68%
    20:00 +21°C° 0 mm 3 m/s 761 mmHg 72%
    21:00 +20°C° 0 mm 2 m/s 761 mmHg 77%
    22:00 +20°C° 0 mm 2 m/s 761 mmHg 81%
    23:00 +19°C° 0 mm 2 m/s 761 mmHg 83%

    Mâine, 19 Noiembrie, Marţi

    Timp Temperatura Precipitaţii Vânt Presiune Umiditate
    00:00 +20°C° 0 mm 1 m/s 760 mmHg 84%
    01:00 +20°C° 0 mm 1 m/s 760 mmHg 85%
    02:00 +19°C° 0 mm 1 m/s 760 mmHg 86%
    03:00 +19°C° 0 mm 1 m/s 760 mmHg 86%
    04:00 +19°C° 0 mm 1 m/s 760 mmHg 86%
    05:00 +20°C° 0 mm 1 m/s 760 mmHg 80%
    06:00 +22°C° 0 mm 1 m/s 760 mmHg 75%
    07:00 +23°C° 0 mm 1 m/s 761 mmHg 69%
    08:00 +26°C° 0 mm 1 m/s 760 mmHg 58%
    09:00 +29°C° 0 mm 1 m/s 760 mmHg 47%
    10:00 +32°C° 0 mm 2 m/s 760 mmHg 37%
    11:00 +34°C° 0 mm 2 m/s 759 mmHg 34%
    12:00 +35°C° 0 mm 3 m/s 758 mmHg 32%
    13:00 +36°C° 0 mm 3 m/s 757 mmHg 29%
    14:00 +34°C° 0 mm 4 m/s 757 mmHg 36%
    15:00 +33°C° 0 mm 5 m/s 756 mmHg 42%
    16:00 +30°C° 0 mm 6 m/s 756 mmHg 48%
    17:00 +29°C° 0 mm 5 m/s 756 mmHg 56%
    18:00 +27°C° 0 mm 5 m/s 756 mmHg 63%
    19:00 +25°C° 0 mm 5 m/s 757 mmHg 70%
    20:00 +23°C° 0 mm 4 m/s 757 mmHg 75%
    21:00 +22°C° 0 mm 3 m/s 758 mmHg 79%
    22:00 +22°C° 0 mm 3 m/s 759 mmHg 83%
    23:00 +21°C° 0 mm 2 m/s 758 mmHg 84%

    Poimâine, 20 Noiembrie, Miercuri

    Timp Temperatura Precipitaţii Vânt Presiune Umiditate
    00:00 +21°C° 0 mm 2 m/s 758 mmHg 85%
    01:00 +22°C° 0 mm 1 m/s 758 mmHg 86%
    02:00 +22°C° 0 mm 1 m/s 758 mmHg 87%
    03:00 +21°C° 0 mm 1 m/s 758 mmHg 87%
    04:00 +21°C° 0 mm 1 m/s 758 mmHg 87%
    05:00 +23°C° 0 mm 1 m/s 758 mmHg 80%
    06:00 +24°C° 0 mm 1 m/s 758 mmHg 74%
    07:00 +26°C° 0 mm 2 m/s 759 mmHg 67%
    08:00 +29°C° 0 mm 2 m/s 759 mmHg 57%
    09:00 +32°C° 0 mm 2 m/s 758 mmHg 46%
    10:00 +36°C° 0 mm 2 m/s 758 mmHg 35%
    11:00 +36°C° 0 mm 3 m/s 757 mmHg 34%
    12:00 +37°C° 0 mm 4 m/s 757 mmHg 33%
    13:00 +37°C° 0 mm 4 m/s 756 mmHg 32%
    14:00 +35°C° 0 mm 5 m/s 756 mmHg 39%
    15:00 +34°C° 0 mm 6 m/s 756 mmHg 47%
    16:00 +32°C° 0 mm 6 m/s 756 mmHg 54%
    17:00 +29°C° 0 mm 5 m/s 757 mmHg 62%
    18:00 +27°C° 0 mm 5 m/s 757 mmHg 71%
    19:00 +25°C° 0 mm 4 m/s 758 mmHg 79%
    20:00 +25°C° 0 mm 4 m/s 759 mmHg 81%
    21:00 +25°C° 0 mm 3 m/s 760 mmHg 83%
    22:00 +24°C° 0 mm 3 m/s 760 mmHg 84%
    23:00 +24°C° 0 mm 3 m/s 760 mmHg 84%

    21 Noiembrie, Joi

    Timp Temperatura Precipitaţii Vânt Presiune Umiditate
    00:00 +24°C° 0 mm 3 m/s 760 mmHg 84%
    01:00 +24°C° 0 mm 2 m/s 760 mmHg 84%
    02:00 +23°C° 0 mm 2 m/s 760 mmHg 84%
    03:00 +23°C° 0 mm 2 m/s 761 mmHg 85%
    04:00 +23°C° 0 mm 2 m/s 761 mmHg 85%
    05:00 +24°C° 0 mm 2 m/s 761 mmHg 79%
    06:00 +25°C° 0 mm 3 m/s 762 mmHg 72%
    07:00 +26°C° 0 mm 3 m/s 762 mmHg 66%
    08:00 +27°C° 0 mm 3 m/s 762 mmHg 58%
    09:00 +29°C° 0 mm 3 m/s 762 mmHg 51%
    10:00 +30°C° 0 mm 4 m/s 762 mmHg 43%
    11:00 +30°C° 0 mm 4 m/s 761 mmHg 40%
    12:00 +32°C° 0 mm 4 m/s 761 mmHg 38%
    13:00 +32°C° 0 mm 5 m/s 760 mmHg 36%
    14:00 +30°C° 0 mm 5 m/s 760 mmHg 39%
    15:00 +29°C° 0 mm 5 m/s 760 mmHg 42%
    16:00 +28°C° 0 mm 5 m/s 759 mmHg 45%
    17:00 +27°C° 0 mm 4 m/s 760 mmHg 53%
    18:00 +25°C° 0 mm 4 m/s 761 mmHg 61%
    19:00 +22°C° 0 mm 3 m/s 761 mmHg 70%
    20:00 +22°C° 0 mm 3 m/s 761 mmHg 74%
    21:00 +21°C° 0 mm 3 m/s 762 mmHg 78%
    22:00 +20°C° 0 mm 3 m/s 762 mmHg 82%
    23:00 +20°C° 0 mm 2 m/s 762 mmHg 83%

    22 Noiembrie, Vineri

    Timp Temperatura Precipitaţii Vânt Presiune Umiditate
    00:00 +20°C° 0 mm 2 m/s 762 mmHg 85%
    01:00 +19°C° 0 mm 2 m/s 762 mmHg 86%
    02:00 +19°C° 0 mm 2 m/s 761 mmHg 87%
    03:00 +19°C° 0 mm 2 m/s 761 mmHg 87%
    04:00 +19°C° 0 mm 2 m/s 761 mmHg 88%
    05:00 +20°C° 0 mm 2 m/s 761 mmHg 82%
    06:00 +21°C° 0 mm 2 m/s 762 mmHg 76%
    07:00 +24°C° 0 mm 1 m/s 762 mmHg 70%
    08:00 +26°C° 0 mm 2 m/s 762 mmHg 60%
    09:00 +28°C° 0 mm 2 m/s 762 mmHg 50%
    10:00 +30°C° 0 mm 3 m/s 762 mmHg 40%
    11:00 +31°C° 0 mm 3 m/s 761 mmHg 39%
    12:00 +32°C° 0 mm 4 m/s 760 mmHg 37%
    13:00 +32°C° 0 mm 5 m/s 760 mmHg 35%
    14:00 +32°C° 0 mm 5 m/s 759 mmHg 39%
    15:00 +30°C° 0 mm 5 m/s 759 mmHg 42%
    16:00 +29°C° 0 mm 5 m/s 759 mmHg 46%
    17:00 +27°C° 0 mm 5 m/s 759 mmHg 55%
    18:00 +25°C° 0 mm 4 m/s 760 mmHg 64%
    19:00 +22°C° 0 mm 4 m/s 760 mmHg 74%
    20:00 +22°C° 0 mm 3 m/s 760 mmHg 77%
    21:00 +21°C° 0 mm 3 m/s 761 mmHg 81%
    22:00 +20°C° 0 mm 2 m/s 761 mmHg 84%
    23:00 +20°C° 0 mm 2 m/s 761 mmHg 85%

    23 Noiembrie, Sâmbătă

    Timp Temperatura Precipitaţii Vânt Presiune Umiditate
    00:00 +20°C° 0 mm 2 m/s 761 mmHg 86%
    01:00 +21°C° 0 mm 1 m/s 760 mmHg 87%
    02:00 +20°C° 0 mm 1 m/s 760 mmHg 88%
    03:00 +20°C° 0 mm 1 m/s 760 mmHg 88%
    04:00 +20°C° 0 mm 1 m/s 760 mmHg 89%
    05:00 +21°C° 0 mm 1 m/s 761 mmHg 83%
    06:00 +23°C° 0 mm 1 m/s 761 mmHg 77%
    07:00 +24°C° 0 mm 1 m/s 761 mmHg 71%
    08:00 +26°C° 0 mm 1 m/s 761 mmHg 62%
    09:00 +27°C° 0 mm 2 m/s 761 mmHg 54%
    10:00 +29°C° 0 mm 2 m/s 761 mmHg 45%
    11:00 +30°C° 0 mm 3 m/s 760 mmHg 43%
    12:00 +30°C° 0 mm 4 m/s 760 mmHg 41%
    13:00 +32°C° 0 mm 4 m/s 759 mmHg 40%
    14:00 +30°C° 0 mm 5 m/s 758 mmHg 43%
    15:00 +29°C° 0 mm 5 m/s 758 mmHg 47%
    16:00 +28°C° 0 mm 5 m/s 757 mmHg 51%
    17:00 +27°C° 0 mm 5 m/s 758 mmHg 59%
    18:00 +25°C° 0 mm 4 m/s 758 mmHg 66%
    19:00 +22°C° 0 mm 4 m/s 759 mmHg 74%
    20:00 +22°C° 0 mm 3 m/s 759 mmHg 77%
    21:00 +21°C° 0 mm 3 m/s 760 mmHg 81%
    22:00 +21°C° 0 mm 2 m/s 760 mmHg 84%
    23:00 +20°C° 0 mm 2 m/s 760 mmHg 84%
    Arată mai mult